This is the latest recevied weather packets stored in our database for station/object PA1CD-13. If no packets are shown the sender has not sent any weather packets the latest 10 day(s).
| Time | Temp. | Humidity | Pressure | Rain* | Wind** | Luminosity | Snow |
|---|---|---|---|---|---|---|---|
| 1778337242 | 17.22° C | 59% | 1016.6 hPa | 0 mm | - | 431 W/m² | - |
| 1778337123 | 17.22° C | 58% | 1016.6 hPa | 0 mm | - | 373 W/m² | - |
| 1778337003 | 17.22° C | 58% | 1016.6 hPa | 0 mm | - | 403 W/m² | - |
| 1778336883 | 17.22° C | 58% | 1016.6 hPa | 0 mm | - | 638 W/m² | - |
| 1778336762 | 17.22° C | 58% | 1016.6 hPa | 0 mm | - | 679 W/m² | - |
| 1778336643 | 17.22° C | 58% | 1016.6 hPa | 0 mm | - | 826 W/m² | - |
| 1778336523 | 16.67° C | 59% | 1016.6 hPa | 0 mm | - | 863 W/m² | - |
| 1778336403 | 16.67° C | 59% | 1016.7 hPa | 0 mm | - | 325 W/m² | - |
| 1778336252 | 16.67° C | 59% | 1016.6 hPa | 0 mm | - | 818 W/m² | - |
| 1778336132 | 16.67° C | 58% | 1016.7 hPa | 0 mm | - | 939 W/m² | - |
| 1778336011 | 16.67° C | 58% | 1016.8 hPa | 0 mm | - | 939 W/m² | - |
| 1778335892 | 16.67° C | 58% | 1016.8 hPa | 0 mm | - | 355 W/m² | - |
| 1778335770 | 16.67° C | 59% | 1017.1 hPa | 0 mm | - | 324 W/m² | - |
| 1778335633 | 16.67° C | 59% | 1016.9 hPa | 0 mm | - | 324 W/m² | - |
| 1778335511 | 16.67° C | 59% | 1017 hPa | 0 mm | - | 313 W/m² | - |
| 1778335383 | 16.67° C | 59% | 1017.2 hPa | 0 mm | - | 308 W/m² | - |
| 1778335263 | 16.67° C | 59% | 1017.1 hPa | 0 mm | - | 315 W/m² | - |
| 1778335143 | 16.67° C | 59% | 1017.1 hPa | 0 mm | - | 315 W/m² | - |
| 1778335022 | 16.67° C | 59% | 1017.1 hPa | 0 mm | - | 308 W/m² | - |
| 1778334903 | 16.67° C | 59% | 1017.1 hPa | 0 mm | - | 310 W/m² | - |
| 1778334783 | 16.67° C | 59% | 1017.2 hPa | 0 mm | - | 315 W/m² | - |
| 1778334662 | 16.67° C | 58% | 1017.2 hPa | 0 mm | - | 290 W/m² | - |
| 1778334542 | 16.67° C | 58% | 1017.3 hPa | 0 mm | - | 290 W/m² | - |
| 1778334424 | 16.67° C | 58% | 1017.3 hPa | 0 mm | - | 290 W/m² | - |
| 1778334181 | 16.67° C | 58% | 1017.3 hPa | 0 mm | - | 294 W/m² | - |
* Rain latest hour (hover to see other rain measurements)
** Current wind speed in m/s (hover to see current wind gust speed)